Weather in Dolgoe

Ukraine / Zakarpattia District     48°22′03″N   23°17′13″E
temp.,
°C
wind,
m/s
gust,
m/s
humid.,
%
clouds,
%
prec.,
mm/h
press.,
hPa
HPBL,
m
15 august, mon
mon1500:00+18ene22811 0.1 100818
03:00+16e228463 0.1 100815
06:00+16e2285100 0.0 100815
09:00+21ese1166100 0.0 1008194
12:00+26s1145100 0.0 1007796
15:00+29nw2236100 0.0 10061712
18:00+28n3337100 0.1 10051009
21:00+23ne2358100 0.1 100639
16 august, tue
tue1600:00+18ene2283100 0.9 100818
03:00+17e2285100 0.9 100814
06:00+16ne1189100 0.3 100811
09:00+20ese117868 0.4 1009162
12:00+27wsw2248100 0.0 10081012
15:00+31wsw343394 0.0 10072327
18:00+30nnw353299 0.0 10062085
21:00+18ene2192100 2.5 101019
17 august, wed
wed1700:00+17e22928 0.1 101020
03:00+16ene119128 0.1 101011
06:00+17ene118983 0.0 101015
09:00+20se11775 0.0 1011225
12:00+26wsw234919 0.0 10101171
15:00+27n344878 0.3 10101346
18:00+28n454446 0.0 10091719
21:00+21nne33715 0.0 101137
18 august, thu
thu1800:00+18ne33795 0.0 101139
03:00+17ene22855 0.0 101131
06:00+16ene22880 0.0 101225
09:00+22e12600 0.0 1012282
12:00+29ese12402 0.0 10111260
15:00+32sw23325 0.0 10102392
18:00+31nw133494 0.0 10091178
21:00+24ene325699 0.0 101133
19 august, fri
fri1900:00+21ene32631 0.0 101031
03:00+20ene22690 0.0 101127
06:00+18ene22735 0.0 101124
09:00+24ese225317 0.0 1010237
12:00+31se21335 0.0 10101156
15:00+35s22250 0.0 10082349
18:00+34sse222466 0.0 10072273
21:00+25s2251100 0.2 100724